TimeMST,TemperatureF,Dew PointF,Humidity,Sea Level PressureIn,VisibilityMPH,Wind Direction,Wind SpeedMPH,Gust SpeedMPH,PrecipitationIn,Events,Conditions,WindDirDegrees,DateUTC
12:57 AM,28.9,19.9,69,30.07,10.0,Calm,Calm,-,N/A,,Clear,0,2012-11-03 07:57:00
1:57 AM,28.9,21.0,72,30.08,10.0,Calm,Calm,-,N/A,,Clear,0,2012-11-03 08:57:00
2:57 AM,28.0,21.0,75,30.08,10.0,Calm,Calm,-,N/A,,Clear,0,2012-11-03 09:57:00
3:57 AM,27.0,21.0,78,30.08,10.0,Calm,Calm,-,N/A,,Clear,0,2012-11-03 10:57:00
4:57 AM,27.0,19.9,75,30.10,10.0,Calm,Calm,-,N/A,,Clear,0,2012-11-03 11:57:00
5:57 AM,26.1,19.9,78,30.15,10.0,Calm,Calm,-,N/A,,Clear,0,2012-11-03 12:57:00
6:57 AM,26.1,21.0,81,30.21,10.0,Calm,Calm,-,N/A,,Clear,0,2012-11-03 13:57:00
7:57 AM,35.1,25.0,67,30.19,10.0,Calm,Calm,-,N/A,,Clear,0,2012-11-03 14:57:00
8:57 AM,48.0,28.0,46,30.16,10.0,Calm,Calm,-,N/A,,Clear,0,2012-11-03 15:57:00
9:57 AM,55.9,28.9,36,30.14,10.0,Variable,3.5,-,N/A,,Clear,0,2012-11-03 16:57:00
10:57 AM,57.0,28.0,33,30.15,10.0,South,3.5,-,N/A,,Mostly Cloudy,190,2012-11-03 17:57:00
11:57 AM,57.0,27.0,32,30.14,10.0,Variable,3.5,-,N/A,,Mostly Cloudy,0,2012-11-03 18:57:00
12:57 PM,60.1,26.1,27,30.12,10.0,Variable,3.5,-,N/A,,Mostly Cloudy,0,2012-11-03 19:57:00
1:00 PM,-9999,-9999,N/A,-9999,-9999.0,North,-9999.0,-,N/A,,Unknown,0,2012-11-03 20:00:00
1:57 PM,59.0,24.1,26,30.11,10.0,Calm,Calm,-,N/A,,Mostly Cloudy,0,2012-11-03 20:57:00
2:57 PM,60.1,24.1,25,30.11,10.0,NE,4.6,-,N/A,,Partly Cloudy,40,2012-11-03 21:57:00
3:57 PM,60.1,24.1,25,30.12,10.0,ENE,8.1,-,N/A,,Clear,70,2012-11-03 22:57:00
4:57 PM,57.0,24.1,28,30.14,10.0,East,6.9,-,N/A,,Clear,100,2012-11-03 23:57:00
5:57 PM,48.0,24.1,39,30.20,10.0,Calm,Calm,-,N/A,,Clear,0,2012-11-04 00:57:00
6:57 PM,42.1,23.0,47,30.25,10.0,Calm,Calm,-,N/A,,Clear,0,2012-11-04 01:57:00
7:57 PM,37.9,21.9,53,30.22,10.0,Calm,Calm,-,N/A,,Clear,0,2012-11-04 02:57:00
8:57 PM,35.1,21.0,57,30.20,10.0,Calm,Calm,-,N/A,,Clear,0,2012-11-04 03:57:00
9:57 PM,33.1,21.0,61,30.19,10.0,Calm,Calm,-,N/A,,Clear,0,2012-11-04 04:57:00
10:57 PM,30.9,21.0,67,30.19,10.0,Calm,Calm,-,N/A,,Clear,0,2012-11-04 05:57:00
11:57 PM,30.0,19.9,66,30.20,10.0,Calm,Calm,-,N/A,,Clear,0,2012-11-04 06:57:00